Weather History for Asheville, NC

Change the Weather History Date:

Tuesday, September 16, 2008

  Actual Average Record
Temperature  
Mean Temperature 63 °F 66 °F  
Max Temperature 64 °F 77 °F 94 °F (1897)
Min Temperature 61 °F 56 °F 38 °F (1902)
Degree Days  
Heating Degree Days 2 2  
Month to date heating degree days 2 9  
Since 1 July heating degree days 3 11  
Cooling Degree Days 0 3  
Month to date cooling degree days 97 70  
Year to date cooling degree days 866 827  
Growing Degree Days 12 (Base 50)    
Moisture  
Dew Point 58 °F    
Average Humidity 89    
Maximum Humidity 100    
Minimum Humidity 78    
Precipitation  
Precipitation 0.10 in 0.13 in 3.31 in (2004)
Month to date precipitation 1.20 2.13  
Year to date precipitation 26.94 33.74  
Snow  
Snow 0.00 in 0.00 in 0.00 in ()
Month to date snowfall 0.0 0.0  
Since 1 July snowfall 0.0 0.0  
Since 1 September snowfall 0.0 0.0  
Snow Depth -    
Sea Level Pressure  
Sea Level Pressure 30.11 in    
Wind  
Wind Speed 4 mph (North)    
Max Wind Speed 13 mph    
Max Gust Speed 16 mph    
Visibility 9 miles    
Events Rain    
T = Trace of Precipitation, MM = Missing Value Source: NWS Daily Summary

Daily Weather History Graph

Daily Weather History Graph

Search for Another Location

Airport:

Trip Planner

Search our weather history database for the weather conditions in past years. The results will help you decide how hot, cold, wet, or windy it might be!

Date:

Astronomy

Sep. 16, 2008 Rise Set
Actual Time 7:13 AM EDT 7:35 PM EDT
Civil Twilight 6:48 AM EDT 8:00 PM EDT
Nautical Twilight 6:18 AM EDT 8:30 PM EDT
Astronomical Twilight 5:48 AM EDT 9:00 PM EDT
Moon 8:06 PM EDT (9/16) 8:31 AM EDT (9/16)
Length of Visible Light 13h 12m
Length of Day
12h 21m
Full, 98% of the Moon is Illuminated
Sep 16
Full
Sep 22
Last Quarter
Sep 29
New
Oct 7
First Quarter
Oct 14
Full

Hourly Weather History & Observations

Time (EDT) Temp. Dew Point Humidity Pressure Visibility Wind Dir Wind Speed Gust Speed Precip Events Conditions
12:54 AM 63.0 °F 60.1 °F 90% 30.05 in 10.0 mi NNW 12.7 mph - 0.00 in Rain Light Rain
1:30 AM 62.6 °F 59.0 °F 88% 30.11 in 6.0 mi Variable 5.8 mph - 0.00 in Rain Rain
1:54 AM 62.1 °F 59.0 °F 90% 30.04 in 10.0 mi North 6.9 mph - 0.02 in   Overcast
2:54 AM 62.1 °F 59.0 °F 90% 30.03 in 10.0 mi North 9.2 mph - 0.00 in Rain Light Rain
3:11 AM 62.6 °F 59.0 °F 88% 30.10 in 10.0 mi North 8.1 mph - 0.00 in Rain Light Rain
3:54 AM 62.1 °F 60.1 °F 93% 30.03 in 6.0 mi North 6.9 mph - 0.00 in Rain Light Rain
4:54 AM 62.1 °F 60.1 °F 93% 30.04 in 7.0 mi North 6.9 mph - 0.01 in Rain Light Rain
5:54 AM 61.0 °F 60.1 °F 97% 30.05 in 6.0 mi North 5.8 mph - 0.04 in Rain Light Rain
6:54 AM 61.0 °F 59.0 °F 93% 30.06 in 7.0 mi NNW 8.1 mph - 0.03 in Rain Light Rain
7:26 AM 60.8 °F 59.0 °F 94% 30.13 in 10.0 mi NNW 5.8 mph - N/A Rain Light Rain
7:54 AM 61.0 °F 59.0 °F 93% 30.08 in 10.0 mi Variable 5.8 mph - 0.00 in   Overcast
8:54 AM 62.1 °F 59.0 °F 90% 30.09 in 10.0 mi Calm Calm - N/A   Overcast
9:54 AM 63.0 °F 59.0 °F 87% 30.10 in 10.0 mi NNE 4.6 mph - 0.00 in   Overcast
10:27 AM 62.6 °F 59.0 °F 88% 30.16 in 5.0 mi North 5.8 mph - 0.00 in   Overcast
10:54 AM 63.0 °F 60.1 °F 90% 30.12 in 5.0 mi North 3.5 mph - 0.00 in   Overcast
11:54 AM 62.1 °F 57.9 °F 86% 30.13 in 10.0 mi Variable 5.8 mph - 0.00 in Rain Light Rain
12:54 PM 62.1 °F 57.9 °F 86% 30.13 in 10.0 mi Variable 4.6 mph - 0.00 in   Overcast
1:54 PM 63.0 °F 57.0 °F 81% 30.12 in 10.0 mi Variable 4.6 mph - N/A   Overcast
2:54 PM 63.0 °F 57.0 °F 81% 30.12 in 10.0 mi Variable 3.5 mph - N/A   Overcast
3:54 PM 63.0 °F 57.0 °F 81% 30.09 in 10.0 mi North 5.8 mph - N/A   Overcast
4:54 PM 64.0 °F 57.9 °F 80% 30.09 in 10.0 mi Variable 3.5 mph - N/A   Overcast
5:54 PM 64.0 °F 59.0 °F 84% 30.09 in 10.0 mi Calm Calm - N/A   Overcast
6:54 PM 64.0 °F 57.9 °F 80% 30.10 in 10.0 mi Calm Calm - N/A   Overcast
7:54 PM 63.0 °F 57.9 °F 84% 30.11 in 10.0 mi NE 3.5 mph - N/A   Overcast
8:54 PM 64.0 °F 57.9 °F 80% 30.13 in 10.0 mi Calm Calm - N/A   Overcast
10:25 PM 62.6 °F 57.2 °F 82% 30.21 in 10.0 mi NNE 4.6 mph - N/A   Overcast
10:54 PM 62.1 °F 57.0 °F 84% 30.16 in 10.0 mi Calm Calm - N/A   Overcast
11:01 PM 62.6 °F 57.2 °F 82% 30.21 in 10.0 mi Variable 4.6 mph - N/A   Overcast
11:54 PM 61.0 °F 57.0 °F 87% 30.17 in 10.0 mi Calm Calm - N/A   Overcast